SCP
2 2 2 2 1 1 1 1 2 4 4 5 5 3 4 3 2 2 1 1 1 1
4 3 3 2 2 2 2 2 2 2 3 4 4 3 4 4 3 3 2 2 1 1
5 4 3 3 2 2 2 2 2 1 1 2 5 4 3 3 3 3 3 3 2 2
7 5 4 3 2 3 3 2 1 1 2 1 3 4 3 3 2 2 2 2 1 1
8 6 5 4 4 4 3 4 3 2 2 2 3 2 3 2 2 2 2 2 1 1
6 5 4 4 4 4 4 4 4 4 3 3 3 3 2 2 2 1 1 1 1 1
3 4 4 4 4 5 6 7 7 5 4 3 2 2 1 1 1 1 1 1 1 0
4 3 3 4 5 7 9 9 8 4 4 2 1 1 1 0 1 1 0 0 0 0
3 7 7 6 8 9 8 7 6 3 1 1 1 0 0 0 1 0 0 0 0 0
2 6 5 8 9 7 6 5 6 3 2 0 0 0 0 0 0 0 0 0 0 0
2 4 5 5 5 5 5 2 1 1 0 0 1 0 0 0 0 0 0 0 0 0
3 3 4 4 4 3 2 0 0 0 1 1 1 0 0 0 0 0 0 0 0 0
1 2 2 2 2 2 1 0 0 0 0 0 0 0 0 0 0 0 0 0 0 0
1 1 1 1 1 2 1 0 0 0 0 0 0 0 0 0 0 0 0 0 0 0
Wind_Speed_500mb
45 43 38 35 31 31 33 34 38 46 50 50 51 57 66 69 72 72 72 76 81 82
43 40 34 32 33 25 25 29 35 43 55 60 62 64 63 65 71 70 72 71 70 74
40 36 35 35 29 25 28 33 38 42 44 47 52 58 61 67 70 67 68 68 65 68
36 31 30 30 28 28 28 32 35 38 43 47 50 52 55 65 69 71 68 66 63 66
34 30 27 29 31 31 33 30 35 43 49 49 50 50 48 50 56 61 69 67 63 60
34 29 28 29 33 38 42 44 41 43 47 46 51 53 53 53 53 54 56 53 51 51
35 31 29 32 40 48 53 56 55 47 47 55 58 55 55 53 48 39 34 35 39 41
46 37 34 44 53 57 67 66 58 57 54 60 62 57 52 46 45 43 38 36 37 32
50 45 49 52 60 66 68 62 58 55 67 78 63 52 46 40 35 31 33 28 24 21
51 56 51 78 66 65 64 57 57 37 38 82 84 55 50 40 38 39 33 27 22 21
37 46 44 55 64 65 66 63 66 72 77 55 71 68 58 46 38 39 32 29 22 25
40 46 51 56 57 60 69 73 71 62 48 60 64 64 54 51 43 40 36 32 27 23
62 66 69 74 77 75 69 67 60 58 53 45 64 61 51 52 51 47 43 34 33 30
67 69 70 73 71 69 67 63 59 58 59 49 47 51 53 48 53 52 51 50 46 38
Wind_Direction_500mb
241 239 232 234 241 250 256 260 264 264 265 269 270 266 267 268 266 267 267 264 262 262
222 221 221 225 232 250 265 269 274 271 268 268 269 270 272 269 271 272 270 270 271 264
210 221 231 236 245 261 264 266 272 274 272 271 273 273 273 271 272 272 273 273 271 271
211 220 230 240 255 267 274 274 273 277 279 278 280 280 272 268 270 270 271 273 274 269
214 218 235 255 268 273 275 283 283 282 279 281 286 281 275 269 269 269 270 273 271 272
237 232 238 257 273 278 279 281 283 288 283 287 288 283 278 273 271 274 274 271 268 267
256 264 267 270 274 278 279 280 280 284 291 287 288 286 281 275 275 273 263 259 262 262
269 271 273 274 273 272 270 277 286 292 300 297 287 283 278 270 263 261 260 259 265 268
267 266 275 274 270 271 275 284 292 303 307 300 288 283 276 266 252 253 252 257 253 240
257 270 289 277 276 270 277 283 274 273 299 292 299 285 273 260 259 252 245 234 216 202
281 284 286 276 278 281 282 284 281 292 298 289 287 290 270 259 252 242 232 214 213 202
305 302 299 298 299 297 292 294 295 295 314 294 285 284 262 257 248 226 216 218 202 201
308 306 305 304 302 304 301 300 292 282 288 296 276 279 263 251 243 223 217 201 193 183
318 319 317 314 311 308 303 294 287 278 289 287 267 271 270 254 246 222 217 206 198 196
Wind_Speed_850mb
45 43 38 35 31 31 33 34 38 46 50 50 51 57 66 69 72 72 72 76 81 82
43 40 34 32 33 25 25 29 35 43 55 60 62 64 63 65 71 70 72 71 70 74
40 36 35 35 29 25 28 33 38 42 44 47 52 58 61 67 70 67 68 68 65 68
36 31 30 30 28 28 28 32 35 38 43 47 50 52 55 65 69 71 68 66 63 66
34 30 27 29 31 31 33 30 35 43 49 49 50 50 48 50 56 61 69 67 63 60
34 29 28 29 33 38 42 44 41 43 47 46 51 53 53 53 53 54 56 53 51 51
35 31 29 32 40 48 53 56 55 47 47 55 58 55 55 53 48 39 34 35 39 41
46 37 34 44 53 57 67 66 58 57 54 60 62 57 52 46 45 43 38 36 37 32
50 45 49 52 60 66 68 62 58 55 67 78 63 52 46 40 35 31 33 28 24 21
51 56 51 78 66 65 64 57 57 37 38 82 84 55 50 40 38 39 33 27 22 21
37 46 44 55 64 65 66 63 66 72 77 55 71 68 58 46 38 39 32 29 22 25
40 46 51 56 57 60 69 73 71 62 48 60 64 64 54 51 43 40 36 32 27 23
62 66 69 74 77 75 69 67 60 58 53 45 64 61 51 52 51 47 43 34 33 30
67 69 70 73 71 69 67 63 59 58 59 49 47 51 53 48 53 52 51 50 46 38
Wind_Direction_850mb
241 239 232 234 241 250 256 260 264 264 265 269 270 266 267 268 266 267 267 264 262 262
222 221 221 225 232 250 265 269 274 271 268 268 269 270 272 269 271 272 270 270 271 264
210 221 231 236 245 261 264 266 272 274 272 271 273 273 273 271 272 272 273 273 271 271
211 220 230 240 255 267 274 274 273 277 279 278 280 280 272 268 270 270 271 273 274 269
214 218 235 255 268 273 275 283 283 282 279 281 286 281 275 269 269 269 270 273 271 272
237 232 238 257 273 278 279 281 283 288 283 287 288 283 278 273 271 274 274 271 268 267
256 264 267 270 274 278 279 280 280 284 291 287 288 286 281 275 275 273 263 259 262 262
269 271 273 274 273 272 270 277 286 292 300 297 287 283 278 270 263 261 260 259 265 268
267 266 275 274 270 271 275 284 292 303 307 300 288 283 276 266 252 253 252 257 253 240
257 270 289 277 276 270 277 283 274 273 299 292 299 285 273 260 259 252 245 234 216 202
281 284 286 276 278 281 282 284 281 292 298 289 287 290 270 259 252 242 232 214 213 202
305 302 299 298 299 297 292 294 295 295 314 294 285 284 262 257 248 226 216 218 202 201
308 306 305 304 302 304 301 300 292 282 288 296 276 279 263 251 243 223 217 201 193 183
318 319 317 314 311 308 303 294 287 278 289 287 267 271 270 254 246 222 217 206 198 196